User: anonymous   Login
Location: Unspecified
(0.0000°N, 0.0000°E)
Time: 16:35:59
(UTC+00:00)
Language:

EO-79 - Orbit

View from above orbital plane
View from above orbital plane
View from above satellite
View from above satellite

Ground track
Ground track

The orbit data is extracted from the following two-line orbital elements,

1 40025U 14033R   19288.84919136  .00000278  00000-0  35515-4 0  9991
2 40025  97.9041 208.3274 0013289  32.9825 327.2219 14.88998389289058
Epoch (UTC): 15 October 2019 20:22:50
Eccentricity: 0.0013289
inclination: 97.9041°
perigee height: 592 km
apogee height: 610 km
right ascension of ascending node: 208.3274°
argument of perigee: 32.9825°
revolutions per day: 14.88998389
mean anomaly at epoch: 327.2219°
orbit number at epoch: 28905

The dashed part of the orbit path shows where the satellite is in the earth's shadow,  

DLR